Location: *
(46.4000°N, 12.6667°E)
Time: 07:21:56
(UTC+00:00)

X-37B - Visible Passes

Search period start: 07 December 2021 00:00
Search period end: 17 December 2021 00:00
Orbit: 330 x 341 km, 45.0° (Epoch: 20 November)

Date Brightness Start Highest point End Pass type
(mag) Time Alt. Az. Time Alt. Az. Time Alt. Az.
07 Dec 2.2 17:16:20 10° SSW 17:18:08 21° S 17:18:08 21° S visible
08 Dec 2.9 16:02:55 10° S 16:03:59 12° SSE 16:05:03 10° SE visible
08 Dec 2.4 17:36:14 10° SW 17:37:44 25° SW 17:37:44 25° SW visible
09 Dec 2.1 16:21:46 10° SSW 16:24:07 23° SSE 16:26:05 12° ESE visible
09 Dec 3.4 17:56:29 10° WSW 17:57:18 17° WSW 17:57:18 17° WSW visible
10 Dec 1.2 16:41:40 10° SW 16:44:23 40° SSE 16:45:37 25° ESE visible
11 Dec 0.5 17:01:55 10° WSW 17:04:45 60° S 17:05:09 52° SE visible
12 Dec 1.0 17:22:18 10° W 17:24:42 54° SW 17:24:42 54° SW visible
13 Dec 0.7 16:07:20 10° WSW 16:10:11 60° S 16:13:01 10° E visible
13 Dec 2.5 17:42:44 10° W 17:44:16 27° WSW 17:44:16 27° WSW visible
14 Dec 0.5 16:27:43 10° W 16:30:35 67° S 16:32:40 17° E visible
14 Dec 3.6 18:03:13 10° W 18:03:54 15° W 18:03:54 15° W visible
15 Dec 0.8 16:48:09 10° W 16:50:59 56° S 16:52:21 26° ESE visible
16 Dec 1.7 17:08:39 10° W 17:11:20 35° SSW 17:12:10 28° SSE visible
